Home   Weather   Siegen   Past weeks

Flag for Germany Past Weather in Siegen, North Rhine-Westphalia, Germany — Yesterday and Last 2 Weeks

Now
43 °F

Light rain. Fog.


Feels Like: 37 °F
Forecast: 47 / 49 °F
Wind: 9 mph from West

Location: Hessen

Current Time: Feb 22, 2017 at 12:52:03 am

Latest Report: Feb 21, 2017 at 8:50 pm


Visibility: 2 mi

Pressure: 29.95 "Hg

Humidity: 100%

Dew Point: 43 °F

Location of SiegenLocation

Past Weather in Siegen — Graph

°F

Siegen Temperature Yesterday

Maximum temperature yesterday: 45 °F (at 10:50 am)
Minimum temperature yesterday: 43 °F (at 7:50 am)
Average temperature yesterday: 44 °F

High & Low Weather Summary for the Past Weeks

 TemperatureHumidityPressure
High54 °F (Feb 15, 12:50 pm)100% (Feb 6, 8:20 pm)30.51 "Hg (Feb 6, 8:20 pm)
Low21 °F (Feb 9, 7:50 am)44% (Feb 15, 1:50 pm)29.92 "Hg (Feb 21, 7:50 am)
Average35 °F90%30.19 "Hg
* Reported Feb 6 8:20 pm — Feb 21 8:50 pm, Siegen, Weather by CustomWeather, © 2017

Note: Actual official high and low records may vary slightly from our data, if they occured in-between our weather recording intervals... More about our weather records

Advertising

Siegen Weather History for the Previous 24 Hours

Scroll right to see more
 ConditionsComfort  
Time TempWeatherWind HumidityBarometerVisibility
8:50 pm
Tue, Feb 21
43 °FLight rain. Fog.9 mph100%29.95 "Hg2 mi
8:20 pm43 °FFog.9 mph100%29.95 "Hg1 mi
7:20 pm43 °FLight rain. Fog.13 mph100%29.95 "Hg3 mi
6:50 pm43 °FLight rain. Passing clouds.12 mph100%29.95 "Hg4 mi
6:20 pm43 °FLight rain. Passing clouds.14 mph100%29.95 "Hg4 mi
5:20 pm43 °FFog.13 mph100%29.95 "Hg2 mi
4:50 pm43 °FFog.14 mph100%29.95 "Hg3 mi
4:20 pm43 °FDrizzle. Fog.14 mph100%29.95 "Hg2 mi
3:50 pm45 °FBroken clouds.13 mph100%29.95 "Hg4 mi
3:20 pm45 °FBroken clouds.15 mph100%29.95 "Hg4 mi
2:50 pm45 °FBroken clouds.16 mph100%29.95 "Hg5 mi
2:20 pm43 °FDrizzle. Fog.15 mph100%29.95 "Hg2 mi
1:50 pm45 °FDrizzle. Fog.16 mph100%29.95 "Hg2 mi
1:20 pm45 °FBroken clouds.17 mph100%29.95 "Hg5 mi
12:50 pm45 °FPartly sunny.17 mph100%29.95 "Hg4 mi
12:20 pm45 °FLight rain. Partly sunny.16 mph100%29.95 "Hg4 mi
11:50 am45 °FPartly sunny.17 mph100%29.95 "Hg4 mi
11:20 am45 °FPartly sunny.20 mph100%29.95 "Hg4 mi
10:50 am45 °FPartly sunny.17 mph100%29.95 "Hg4 mi
10:20 am43 °FFog.17 mph100%29.95 "Hg3 mi
9:20 am43 °FPartly sunny.18 mph100%29.92 "Hg4 mi
8:20 am43 °FDrizzle. Fog.20 mph100%29.92 "Hg2 mi
7:50 am43 °FDrizzle. Fog.21 mph100%29.92 "Hg1 mi
Weather by CustomWeather, © 2017

See weather overviewHow to use our weather pages